Time,TemperatureF,DewpointF,PressureIn,WindDirection,WindDirectionDegrees,WindSpeedMPH,WindSpeedGustMPH,Humidity,HourlyPrecipIn,Conditions,Clouds,dailyrainin,SoftwareType,DateUTC
2013-01-08 00:00:00,36.3,28.1,29.95,West,263,3.0,14.0,72,0.00,,---,0.00,VWS V14.01,2013-01-08 05:00:00,
2013-01-08 00:03:00,36.3,28.1,29.95,SSW,200,3.0,10.0,72,0.00,,---,0.00,VWS V14.01,2013-01-08 05:03:00,
2013-01-08 00:08:00,36.2,28.1,29.95,SSW,202,2.0,11.0,72,0.00,,---,0.00,VWS V14.01,2013-01-08 05:08:00,
2013-01-08 00:13:00,36.2,28.4,29.95,South,178,7.0,13.0,73,0.00,,---,0.00,VWS V14.01,2013-01-08 05:13:00,
2013-01-08 00:18:00,36.2,28.1,29.95,SW,233,6.0,13.0,72,0.00,,---,0.00,VWS V14.01,2013-01-08 05:18:00,
2013-01-08 00:23:00,36.0,28.2,29.95,SW,236,2.0,13.0,73,0.00,,---,0.00,VWS V14.01,2013-01-08 05:23:00,
2013-01-08 00:28:00,35.9,28.1,29.95,SSE,167,14.0,14.0,73,0.00,,---,0.00,VWS V14.01,2013-01-08 05:28:00,
2013-01-08 00:30:00,35.9,28.1,29.95,South,171,12.0,15.0,73,0.00,,---,0.00,VWS V14.01,2013-01-08 05:30:00,
2013-01-08 00:33:00,36.0,28.5,29.95,South,186,3.0,12.0,74,0.00,,---,0.00,VWS V14.01,2013-01-08 05:33:00,
2013-01-08 00:38:00,35.9,28.4,29.95,SSE,161,1.0,12.0,74,0.00,,---,0.00,VWS V14.01,2013-01-08 05:38:00,
2013-01-08 00:43:00,35.8,28.7,29.95,SSW,200,6.0,12.0,75,0.00,,---,0.00,VWS V14.01,2013-01-08 05:43:00,
2013-01-08 00:48:00,35.9,28.4,29.96,WSW,247,7.0,13.0,74,0.00,,---,0.00,VWS V14.01,2013-01-08 05:48:00,
2013-01-08 00:53:00,35.9,28.4,29.96,West,260,3.0,13.0,74,0.00,,---,0.00,VWS V14.01,2013-01-08 05:53:00,
2013-01-08 00:58:00,35.9,28.4,29.96,ESE,117,0.0,13.0,74,0.00,,---,0.00,VWS V14.01,2013-01-08 05:58:00,
2013-01-08 01:00:00,35.8,28.7,29.96,SSW,200,1.0,13.0,75,0.00,,---,0.00,VWS V14.01,2013-01-08 06:00:00,
2013-01-08 01:03:00,35.8,28.7,29.96,East,100,0.0,7.0,75,0.00,,---,0.00,VWS V14.01,2013-01-08 06:03:00,
2013-01-08 01:08:00,35.8,28.7,29.96,South,184,0.0,11.0,75,0.00,,---,0.00,VWS V14.01,2013-01-08 06:08:00,
2013-01-08 01:13:00,35.8,28.7,29.96,South,176,3.0,13.0,75,0.00,,---,0.00,VWS V14.01,2013-01-08 06:13:00,
2013-01-08 01:18:00,35.8,28.7,29.96,South,175,0.0,13.0,75,0.00,,---,0.00,VWS V14.01,2013-01-08 06:18:00,
2013-01-08 01:23:00,35.8,28.7,29.96,SSE,164,4.0,13.0,75,0.00,,---,0.00,VWS V14.01,2013-01-08 06:23:00,
2013-01-08 01:28:00,35.8,28.7,29.96,SSE,157,3.0,13.0,75,0.00,,---,0.00,VWS V14.01,2013-01-08 06:28:00,
2013-01-08 01:30:00,35.6,28.8,29.97,SSW,196,4.0,13.0,76,0.00,,---,0.00,VWS V14.01,2013-01-08 06:30:00,
2013-01-08 01:33:00,35.5,28.7,29.97,SSW,200,0.0,4.0,76,0.00,,---,0.00,VWS V14.01,2013-01-08 06:33:00,
2013-01-08 01:39:00,35.3,28.5,29.97,South,178,1.0,5.0,76,0.00,,---,0.00,VWS V14.01,2013-01-08 06:39:00,
2013-01-08 01:44:00,35.2,28.4,29.97,SE,141,0.0,6.0,76,0.00,,---,0.00,VWS V14.01,2013-01-08 06:44:00,
2013-01-08 01:49:00,35.2,28.7,29.98,SSE,168,3.0,8.0,77,0.00,,---,0.00,VWS V14.01,2013-01-08 06:49:00,
2013-01-08 01:54:00,35.2,28.7,29.98,South,175,0.0,8.0,77,0.00,,---,0.00,VWS V14.01,2013-01-08 06:54:00,
2013-01-08 01:59:00,34.9,28.8,29.98,SSW,206,4.0,8.0,78,0.00,,---,0.00,VWS V14.01,2013-01-08 06:59:00,
2013-01-08 02:00:00,34.9,28.8,29.98,SW,215,4.0,8.0,78,0.00,,---,0.00,VWS V14.01,2013-01-08 07:00:00,
2013-01-08 02:04:00,34.9,28.8,29.98,SSE,155,1.0,6.0,78,0.00,,---,0.00,VWS V14.01,2013-01-08 07:04:00,
2013-01-08 02:09:00,34.9,28.8,29.98,SSW,202,2.0,9.0,78,0.00,,---,0.00,VWS V14.01,2013-01-08 07:09:00,
2013-01-08 02:14:00,34.7,28.9,29.98,SW,219,0.0,10.0,79,0.00,,---,0.00,VWS V14.01,2013-01-08 07:14:00,
2013-01-08 02:19:00,34.9,29.1,29.98,SSW,210,7.0,10.0,79,0.00,,---,0.00,VWS V14.01,2013-01-08 07:19:00,
2013-01-08 02:24:00,34.7,28.9,29.98,SSE,157,3.0,10.0,79,0.00,,---,0.00,VWS V14.01,2013-01-08 07:24:00,
2013-01-08 02:29:00,34.7,28.9,29.98,South,184,5.0,10.0,79,0.00,,---,0.00,VWS V14.01,2013-01-08 07:29:00,
2013-01-08 02:30:00,34.7,28.9,29.98,SW,224,5.0,10.0,79,0.00,,---,0.00,VWS V14.01,2013-01-08 07:30:00,
2013-01-08 02:34:00,34.9,29.1,29.98,SW,233,1.0,8.0,79,0.00,,---,0.00,VWS V14.01,2013-01-08 07:34:00,
2013-01-08 02:39:00,34.9,29.1,29.98,South,189,6.0,11.0,79,0.00,,---,0.00,VWS V14.01,2013-01-08 07:39:00,
2013-01-08 02:44:00,34.9,29.1,29.98,SSE,152,2.0,11.0,79,0.00,,---,0.00,VWS V14.01,2013-01-08 07:44:00,
2013-01-08 02:49:00,34.9,29.1,29.98,SW,220,0.0,11.0,79,0.00,,---,0.00,VWS V14.01,2013-01-08 07:49:00,
2013-01-08 02:54:00,34.9,29.1,29.98,SW,220,5.0,11.0,79,0.00,,---,0.00,VWS V14.01,2013-01-08 07:54:00,
2013-01-08 02:59:00,34.9,29.4,29.98,SW,227,3.0,11.0,80,0.00,,---,0.00,VWS V14.01,2013-01-08 07:59:00,
2013-01-08 03:00:00,34.9,29.1,29.99,SW,220,8.0,11.0,79,0.00,,---,0.00,VWS V14.01,2013-01-08 08:00:00,
2013-01-08 03:04:00,35.0,29.2,29.99,SE,130,1.0,9.0,79,0.00,,---,0.00,VWS V14.01,2013-01-08 08:04:00,
2013-01-08 03:09:00,35.0,29.5,29.99,SSW,198,5.0,9.0,80,0.00,,---,0.00,VWS V14.01,2013-01-08 08:09:00,
2013-01-08 03:14:00,35.0,29.5,30.00,SW,224,0.0,11.0,80,0.00,,---,0.00,VWS V14.01,2013-01-08 08:14:00,
2013-01-08 03:19:00,34.9,29.4,30.00,SSW,212,2.0,11.0,80,0.00,,---,0.00,VWS V14.01,2013-01-08 08:19:00,
2013-01-08 03:24:00,34.9,29.4,30.00,WSW,250,5.0,11.0,80,0.00,,---,0.00,VWS V14.01,2013-01-08 08:24:00,
2013-01-08 03:29:00,34.9,29.4,30.00,WSW,241,1.0,11.0,80,0.00,,---,0.00,VWS V14.01,2013-01-08 08:29:00,
2013-01-08 03:30:00,34.9,29.4,30.00,WSW,247,5.0,11.0,80,0.00,,---,0.00,VWS V14.01,2013-01-08 08:30:00,
2013-01-08 03:34:00,34.9,29.4,30.00,WSW,256,1.0,11.0,80,0.00,,---,0.00,VWS V14.01,2013-01-08 08:34:00,
2013-01-08 03:39:00,34.9,29.4,30.00,SSW,195,6.0,11.0,80,0.00,,---,0.00,VWS V14.01,2013-01-08 08:39:00,
2013-01-08 03:44:00,34.7,29.2,30.00,South,179,5.0,11.0,80,0.00,,---,0.00,VWS V14.01,2013-01-08 08:44:00,
2013-01-08 03:49:00,34.6,29.4,30.00,SSW,202,0.0,11.0,81,0.00,,---,0.00,VWS V14.01,2013-01-08 08:49:00,
2013-01-08 03:54:00,34.3,29.1,30.00,SSW,210,1.0,11.0,81,0.00,,---,0.00,VWS V14.01,2013-01-08 08:54:00,
2013-01-08 03:59:00,34.3,29.4,30.00,SW,226,4.0,11.0,82,0.00,,---,0.00,VWS V14.01,2013-01-08 08:59:00,
2013-01-08 04:00:00,34.3,29.1,30.00,SW,215,6.0,11.0,81,0.00,,---,0.00,VWS V14.01,2013-01-08 09:00:00,
2013-01-08 04:04:00,34.4,29.2,30.00,WSW,244,3.0,8.0,81,0.00,,---,0.00,VWS V14.01,2013-01-08 09:04:00,
2013-01-08 04:10:00,34.3,29.1,30.00,SSW,196,6.0,8.0,81,0.00,,---,0.00,VWS V14.01,2013-01-08 09:10:00,
2013-01-08 04:15:00,34.3,29.1,30.00,SE,144,0.0,8.0,81,0.00,,---,0.00,VWS V14.01,2013-01-08 09:15:00,
2013-01-08 04:20:00,34.0,28.8,30.00,SSW,203,3.0,8.0,81,0.00,,---,0.00,VWS V14.01,2013-01-08 09:20:00,
2013-01-08 04:25:00,34.0,29.1,30.00,WSW,241,3.0,8.0,82,0.00,,---,0.00,VWS V14.01,2013-01-08 09:25:00,
2013-01-08 04:30:00,34.0,29.1,30.01,SW,222,2.0,8.0,82,0.00,,---,0.00,VWS V14.01,2013-01-08 09:30:00,
2013-01-08 04:35:00,33.8,28.6,30.01,SW,234,1.0,3.0,81,0.00,,---,0.00,VWS V14.01,2013-01-08 09:35:00,
2013-01-08 04:40:00,33.5,28.6,30.01,SSW,203,0.0,5.0,82,0.00,,---,0.00,VWS V14.01,2013-01-08 09:40:00,
2013-01-08 04:45:00,33.4,28.8,30.01,South,175,0.0,7.0,83,0.00,,---,0.00,VWS V14.01,2013-01-08 09:45:00,
2013-01-08 04:50:00,33.2,28.6,30.01,SE,136,1.0,7.0,83,0.00,,---,0.00,VWS V14.01,2013-01-08 09:50:00,
2013-01-08 04:55:00,33.2,28.9,30.01,SSW,202,2.0,7.0,84,0.00,,---,0.00,VWS V14.01,2013-01-08 09:55:00,
2013-01-08 05:00:00,33.1,28.5,30.01,SSW,195,1.0,7.0,83,0.00,,---,0.00,VWS V14.01,2013-01-08 10:00:00,
2013-01-08 05:05:00,32.9,28.6,30.01,SSE,150,0.0,5.0,84,0.00,,---,0.00,VWS V14.01,2013-01-08 10:05:00,
2013-01-08 05:10:00,32.7,28.1,30.01,SSE,151,2.0,5.0,83,0.00,,---,0.00,VWS V14.01,2013-01-08 10:10:00,
2013-01-08 05:15:00,32.5,28.2,30.02,SSE,154,1.0,5.0,84,0.00,,---,0.00,VWS V14.01,2013-01-08 10:15:00,
2013-01-08 05:20:00,32.5,28.5,30.02,ESE,117,0.0,7.0,85,0.00,,---,0.00,VWS V14.01,2013-01-08 10:20:00,
2013-01-08 05:25:00,32.1,27.8,30.02,ESE,119,1.0,7.0,84,0.00,,---,0.00,VWS V14.01,2013-01-08 10:25:00,
2013-01-08 05:30:00,31.6,27.6,30.01,ESE,110,1.0,7.0,85,0.00,,---,0.00,VWS V14.01,2013-01-08 10:30:00,
2013-01-08 05:35:00,31.5,27.8,30.01,ESE,110,0.0,1.0,86,0.00,,---,0.00,VWS V14.01,2013-01-08 10:35:00,
2013-01-08 05:40:00,31.6,28.2,30.01,ESE,123,2.0,3.0,87,0.00,,---,0.00,VWS V14.01,2013-01-08 10:40:00,
2013-01-08 05:45:00,31.6,27.9,30.02,ESE,113,3.0,3.0,86,0.00,,---,0.00,VWS V14.01,2013-01-08 10:45:00,
2013-01-08 05:50:00,31.3,27.6,30.02,ESE,114,0.0,4.0,86,0.00,,---,0.00,VWS V14.01,2013-01-08 10:50:00,
2013-01-08 05:55:00,30.9,27.2,30.02,ESE,114,0.0,4.0,86,0.00,,---,0.00,VWS V14.01,2013-01-08 10:55:00,
2013-01-08 06:00:00,30.7,27.3,30.03,SSE,165,0.0,4.0,87,0.00,,---,0.00,VWS V14.01,2013-01-08 11:00:00,
2013-01-08 06:05:00,30.7,27.6,30.03,SSE,165,0.0,0.0,88,0.00,,---,0.00,VWS V14.01,2013-01-08 11:05:00,
2013-01-08 06:10:00,30.6,27.8,30.03,South,174,0.0,2.0,89,0.00,,---,0.00,VWS V14.01,2013-01-08 11:10:00,
2013-01-08 06:15:00,30.4,27.5,30.03,SE,131,0.0,3.0,89,0.00,,---,0.00,VWS V14.01,2013-01-08 11:15:00,
2013-01-08 06:20:00,30.4,27.8,30.03,ESE,121,0.0,3.0,90,0.00,,---,0.00,VWS V14.01,2013-01-08 11:20:00,
2013-01-08 06:25:00,30.4,27.8,30.03,ESE,121,0.0,3.0,90,0.00,,---,0.00,VWS V14.01,2013-01-08 11:25:00,
2013-01-08 06:30:00,30.3,27.7,30.03,SE,140,2.0,2.0,90,0.00,,---,0.00,VWS V14.01,2013-01-08 11:30:00,
2013-01-08 06:35:00,30.3,27.5,30.03,ESE,119,0.0,3.0,89,0.00,,---,0.00,VWS V14.01,2013-01-08 11:35:00,
2013-01-08 06:40:00,30.3,27.5,30.03,ESE,119,1.0,3.0,89,0.00,,---,0.00,VWS V14.01,2013-01-08 11:40:00,
2013-01-08 06:45:00,30.0,27.2,30.05,ESE,119,0.0,3.0,89,0.00,,---,0.00,VWS V14.01,2013-01-08 11:45:00,
2013-01-08 06:50:00,29.7,26.9,30.05,ESE,116,1.0,3.0,89,0.00,,---,0.00,VWS V14.01,2013-01-08 11:50:00,
2013-01-08 06:55:00,29.8,27.2,30.05,ESE,113,0.0,3.0,90,0.00,,---,0.00,VWS V14.01,2013-01-08 11:55:00,
2013-01-08 07:00:00,29.7,27.1,30.05,ESE,113,0.0,0.0,90,0.00,,---,0.00,VWS V14.01,2013-01-08 12:00:00,
2013-01-08 07:05:00,29.7,27.1,30.05,ESE,114,0.0,2.0,90,0.00,,---,0.00,VWS V14.01,2013-01-08 12:05:00,
2013-01-08 07:10:00,29.8,27.5,30.05,ESE,102,0.0,6.0,91,0.00,,---,0.00,VWS V14.01,2013-01-08 12:10:00,
2013-01-08 07:16:00,30.1,27.8,30.06,ESE,109,0.0,6.0,91,0.00,,---,0.00,VWS V14.01,2013-01-08 12:16:00,
2013-01-08 07:21:00,30.4,28.1,30.06,ESE,114,1.0,6.0,91,0.00,,---,0.00,VWS V14.01,2013-01-08 12:21:00,
2013-01-08 07:26:00,30.6,28.0,30.06,ESE,113,2.0,6.0,90,0.00,,---,0.00,VWS V14.01,2013-01-08 12:26:00,
2013-01-08 07:30:00,30.7,27.9,30.07,ESE,114,1.0,6.0,89,0.00,,---,0.00,VWS V14.01,2013-01-08 12:30:00,
2013-01-08 07:31:00,30.6,27.8,30.07,ESE,114,2.0,2.0,89,0.00,,---,0.00,VWS V14.01,2013-01-08 12:31:00,
2013-01-08 07:36:00,30.6,27.8,30.07,ESE,114,0.0,2.0,89,0.00,,---,0.00,VWS V14.01,2013-01-08 12:36:00,
2013-01-08 07:41:00,30.4,27.5,30.07,ESE,114,0.0,2.0,89,0.00,,---,0.00,VWS V14.01,2013-01-08 12:41:00,
2013-01-08 07:46:00,30.4,27.5,30.08,ESE,114,0.0,2.0,89,0.00,,---,0.00,VWS V14.01,2013-01-08 12:46:00,
2013-01-08 07:51:00,30.3,27.7,30.08,ESE,114,0.0,2.0,90,0.00,,---,0.00,VWS V14.01,2013-01-08 12:51:00,
2013-01-08 07:56:00,30.4,27.8,30.08,ESE,114,0.0,2.0,90,0.00,,---,0.00,VWS V14.01,2013-01-08 12:56:00,
2013-01-08 08:00:00,30.3,27.7,30.08,South,189,3.0,3.0,90,0.00,,---,0.00,VWS V14.01,2013-01-08 13:00:00,
2013-01-08 08:01:00,30.4,27.8,30.08,South,169,0.0,5.0,90,0.00,,---,0.00,VWS V14.01,2013-01-08 13:01:00,
2013-01-08 08:06:00,30.4,27.8,30.08,SE,130,1.0,5.0,90,0.00,,---,0.00,VWS V14.01,2013-01-08 13:06:00,
2013-01-08 08:11:00,30.4,28.1,30.08,SE,131,1.0,5.0,91,0.00,,---,0.00,VWS V14.01,2013-01-08 13:11:00,
2013-01-08 08:16:00,30.6,28.0,30.08,SE,126,2.0,5.0,90,0.00,,---,0.00,VWS V14.01,2013-01-08 13:16:00,
2013-01-08 08:21:00,30.4,27.5,30.08,SE,124,1.0,5.0,89,0.00,,---,0.00,VWS V14.01,2013-01-08 13:21:00,
2013-01-08 08:26:00,30.3,27.7,30.08,SE,124,0.0,5.0,90,0.00,,---,0.00,VWS V14.01,2013-01-08 13:26:00,
2013-01-08 08:31:00,30.1,27.5,30.09,SE,124,1.0,2.0,90,0.00,,---,0.00,VWS V14.01,2013-01-08 13:31:00,
2013-01-08 08:36:00,30.1,27.5,30.09,ESE,123,2.0,2.0,90,0.00,,---,0.00,VWS V14.01,2013-01-08 13:36:00,
2013-01-08 08:41:00,30.3,27.7,30.09,SE,124,1.0,3.0,90,0.00,,---,0.00,VWS V14.01,2013-01-08 13:41:00,
2013-01-08 08:46:00,30.3,27.7,30.10,ESE,123,2.0,4.0,90,0.00,,---,0.00,VWS V14.01,2013-01-08 13:46:00,
2013-01-08 08:51:00,30.1,27.5,30.10,ESE,121,0.0,4.0,90,0.00,,---,0.00,VWS V14.01,2013-01-08 13:51:00,
2013-01-08 08:56:00,29.7,26.9,30.10,SE,134,1.0,4.0,89,0.00,,---,0.00,VWS V14.01,2013-01-08 13:56:00,
2013-01-08 09:00:00,29.5,26.9,30.10,ESE,123,1.0,4.0,90,0.00,,---,0.00,VWS V14.01,2013-01-08 14:00:00,
2013-01-08 09:01:00,29.5,26.9,30.10,ESE,123,0.0,2.0,90,0.00,,---,0.00,VWS V14.01,2013-01-08 14:01:00,
2013-01-08 09:06:00,29.4,26.8,30.10,SE,134,2.0,3.0,90,0.00,,---,0.00,VWS V14.01,2013-01-08 14:06:00,
2013-01-08 09:11:00,29.8,27.5,30.10,SE,138,0.0,3.0,91,0.00,,---,0.00,VWS V14.01,2013-01-08 14:11:00,
2013-01-08 09:16:00,30.0,27.7,30.10,SSE,162,2.0,5.0,91,0.00,,---,0.00,VWS V14.01,2013-01-08 14:16:00,
2013-01-08 09:21:00,30.0,27.2,30.10,ESE,119,3.0,5.0,89,0.00,,---,0.00,VWS V14.01,2013-01-08 14:21:00,
2013-01-08 09:26:00,30.1,27.5,30.10,SE,134,0.0,5.0,90,0.00,,---,0.00,VWS V14.01,2013-01-08 14:26:00,
2013-01-08 09:30:00,30.6,28.0,30.10,SE,134,1.0,5.0,90,0.00,,---,0.00,VWS V14.01,2013-01-08 14:30:00,
2013-01-08 09:31:00,30.7,27.9,30.10,SE,136,1.0,2.0,89,0.00,,---,0.00,VWS V14.01,2013-01-08 14:31:00,
2013-01-08 09:36:00,31.3,28.2,30.10,SE,136,6.0,6.0,88,0.00,,---,0.00,VWS V14.01,2013-01-08 14:36:00,
2013-01-08 09:41:00,31.8,28.1,30.10,SE,138,3.0,6.0,86,0.00,,---,0.00,VWS V14.01,2013-01-08 14:41:00,
2013-01-08 09:46:00,32.1,28.1,30.11,SE,126,0.0,7.0,85,0.00,,---,0.00,VWS V14.01,2013-01-08 14:46:00,
2013-01-08 09:51:00,32.5,28.2,30.11,ESE,119,6.0,7.0,84,0.00,,---,0.00,VWS V14.01,2013-01-08 14:51:00,
2013-01-08 09:56:00,32.8,28.5,30.11,ESE,120,0.0,7.0,84,0.00,,---,0.00,VWS V14.01,2013-01-08 14:56:00,
2013-01-08 10:01:00,33.5,28.6,30.11,ESE,113,1.0,3.0,82,0.00,,---,0.00,VWS V14.01,2013-01-08 15:01:00,
2013-01-08 10:06:00,34.1,28.9,30.11,SSE,155,1.0,3.0,81,0.00,,---,0.00,VWS V14.01,2013-01-08 15:06:00,
2013-01-08 10:11:00,34.6,29.1,30.11,SE,126,3.0,3.0,80,0.00,,---,0.00,VWS V14.01,2013-01-08 15:11:00,
2013-01-08 10:16:00,35.0,29.2,30.11,SSE,147,1.0,5.0,79,0.00,,---,0.00,VWS V14.01,2013-01-08 15:16:00,
2013-01-08 10:21:00,35.2,29.4,30.11,South,185,0.0,5.0,79,0.00,,---,0.00,VWS V14.01,2013-01-08 15:21:00,
2013-01-08 10:26:00,35.5,29.3,30.11,SE,144,1.0,5.0,78,0.00,,---,0.00,VWS V14.01,2013-01-08 15:26:00,
2013-01-08 10:30:00,35.8,29.6,30.11,SE,130,0.0,5.0,78,0.00,,---,0.00,VWS V14.01,2013-01-08 15:30:00,
2013-01-08 10:31:00,35.9,29.7,30.11,SSE,162,0.0,7.0,78,0.00,,---,0.00,VWS V14.01,2013-01-08 15:31:00,
2013-01-08 10:36:00,36.2,29.7,30.11,ESE,107,3.0,7.0,77,0.00,,---,0.00,VWS V14.01,2013-01-08 15:36:00,
2013-01-08 10:41:00,36.5,29.7,30.11,ESE,113,0.0,7.0,76,0.00,,---,0.00,VWS V14.01,2013-01-08 15:41:00,
2013-01-08 10:47:00,37.0,30.1,30.11,SSE,160,0.0,7.0,76,0.00,,---,0.00,VWS V14.01,2013-01-08 15:47:00,
2013-01-08 10:52:00,37.6,30.1,30.11,ESE,121,0.0,7.0,74,0.00,,---,0.00,VWS V14.01,2013-01-08 15:52:00,
2013-01-08 10:57:00,37.9,30.0,30.11,SE,127,6.0,7.0,73,0.00,,---,0.00,VWS V14.01,2013-01-08 15:57:00,
2013-01-08 11:00:00,38.0,30.1,30.11,SE,128,0.0,7.0,73,0.00,,---,0.00,VWS V14.01,2013-01-08 16:00:00,
2013-01-08 11:02:00,38.2,30.3,30.11,ESE,123,0.0,2.0,73,0.00,,---,0.00,VWS V14.01,2013-01-08 16:02:00,
2013-01-08 11:07:00,38.3,30.1,30.11,SSE,158,1.0,3.0,72,0.00,,---,0.00,VWS V14.01,2013-01-08 16:07:00,
2013-01-08 11:12:00,38.3,30.1,30.11,SSW,202,0.0,4.0,72,0.00,,---,0.00,VWS V14.01,2013-01-08 16:12:00,
2013-01-08 11:17:00,38.2,30.3,30.11,SE,130,1.0,6.0,73,0.00,,---,0.00,VWS V14.01,2013-01-08 16:17:00,
2013-01-08 11:22:00,38.6,30.7,30.11,SSW,208,0.0,7.0,73,0.00,,---,0.00,VWS V14.01,2013-01-08 16:22:00,
2013-01-08 11:27:00,38.2,30.3,30.11,ESE,121,0.0,7.0,73,0.00,,---,0.00,VWS V14.01,2013-01-08 16:27:00,
2013-01-08 11:30:00,38.2,30.3,30.11,South,181,0.0,7.0,73,0.00,,---,0.00,VWS V14.01,2013-01-08 16:30:00,
2013-01-08 11:32:00,38.3,30.4,30.11,South,182,3.0,3.0,73,0.00,,---,0.00,VWS V14.01,2013-01-08 16:32:00,
2013-01-08 11:37:00,38.5,30.6,30.11,SSW,203,2.0,5.0,73,0.00,,---,0.00,VWS V14.01,2013-01-08 16:37:00,
2013-01-08 11:42:00,38.6,30.4,30.11,SSW,192,3.0,6.0,72,0.00,,---,0.00,VWS V14.01,2013-01-08 16:42:00,
2013-01-08 11:47:00,38.8,30.2,30.11,SE,134,6.0,7.0,71,0.00,,---,0.00,VWS V14.01,2013-01-08 16:47:00,
2013-01-08 11:52:00,38.8,30.6,30.11,WNW,294,1.0,7.0,72,0.00,,---,0.00,VWS V14.01,2013-01-08 16:52:00,
2013-01-08 11:57:00,39.5,30.5,30.11,SE,143,2.0,7.0,70,0.00,,---,0.00,VWS V14.01,2013-01-08 16:57:00,
2013-01-08 12:00:00,39.8,30.8,30.10,SSW,209,0.0,7.0,70,0.00,,---,0.00,VWS V14.01,2013-01-08 17:00:00,
2013-01-08 12:02:00,39.9,30.6,30.10,SSE,152,0.0,5.0,69,0.00,,---,0.00,VWS V14.01,2013-01-08 17:02:00,
2013-01-08 12:07:00,40.3,30.6,30.10,East,95,0.0,6.0,68,0.00,,---,0.00,VWS V14.01,2013-01-08 17:07:00,
2013-01-08 12:12:00,40.6,30.9,30.10,SSW,196,2.0,6.0,68,0.00,,---,0.00,VWS V14.01,2013-01-08 17:12:00,
2013-01-08 12:17:00,41.1,30.6,30.10,South,169,0.0,6.0,66,0.00,,---,0.00,VWS V14.01,2013-01-08 17:17:00,
2013-01-08 12:22:00,40.6,30.5,30.10,SSE,154,0.0,9.0,67,0.00,,---,0.00,VWS V14.01,2013-01-08 17:22:00,
2013-01-08 12:27:00,40.8,30.3,30.10,SSW,206,7.0,9.0,66,0.00,,---,0.00,VWS V14.01,2013-01-08 17:27:00,
2013-01-08 12:30:00,40.9,30.4,30.10,WSW,243,5.0,9.0,66,0.00,,---,0.00,VWS V14.01,2013-01-08 17:30:00,
2013-01-08 12:32:00,41.2,30.7,30.10,SE,140,1.0,5.0,66,0.00,,---,0.00,VWS V14.01,2013-01-08 17:32:00,
2013-01-08 12:37:00,41.3,30.4,30.10,SSW,210,0.0,6.0,65,0.00,,---,0.00,VWS V14.01,2013-01-08 17:37:00,
2013-01-08 12:42:00,41.5,30.2,30.10,SW,233,3.0,6.0,64,0.00,,---,0.00,VWS V14.01,2013-01-08 17:42:00,
2013-01-08 12:47:00,41.8,30.1,30.09,SW,220,3.0,6.0,63,0.00,,---,0.00,VWS V14.01,2013-01-08 17:47:00,
2013-01-08 12:52:00,42.1,30.4,30.09,SSE,150,0.0,6.0,63,0.00,,---,0.00,VWS V14.01,2013-01-08 17:52:00,
2013-01-08 12:57:00,42.3,29.8,30.09,SW,222,2.0,6.0,61,0.00,,---,0.00,VWS V14.01,2013-01-08 17:57:00,
2013-01-08 13:00:00,42.5,30.0,30.09,WSW,244,1.0,6.0,61,0.00,,---,0.00,VWS V14.01,2013-01-08 18:00:00,
2013-01-08 13:02:00,42.6,30.1,30.09,SW,216,0.0,1.0,61,0.00,,---,0.00,VWS V14.01,2013-01-08 18:02:00,
2013-01-08 13:07:00,43.2,30.3,30.09,ESE,110,1.0,5.0,60,0.00,,---,0.00,VWS V14.01,2013-01-08 18:07:00,
2013-01-08 13:12:00,42.9,30.0,30.09,SE,130,1.0,5.0,60,0.00,,---,0.00,VWS V14.01,2013-01-08 18:12:00,
2013-01-08 13:17:00,43.1,29.8,30.09,SW,226,4.0,7.0,59,0.00,,---,0.00,VWS V14.01,2013-01-08 18:17:00,
2013-01-08 13:22:00,42.9,30.0,30.09,SW,216,1.0,7.0,60,0.00,,---,0.00,VWS V14.01,2013-01-08 18:22:00,
2013-01-08 13:27:00,42.6,29.7,30.09,SSW,195,4.0,7.0,60,0.00,,---,0.00,VWS V14.01,2013-01-08 18:27:00,
2013-01-08 13:32:00,42.6,29.7,30.09,SW,233,3.0,3.0,60,0.00,,---,0.00,VWS V14.01,2013-01-08 18:32:00,
2013-01-08 13:37:00,42.3,29.4,30.09,ENE,73,2.0,3.0,60,0.00,,---,0.00,VWS V14.01,2013-01-08 18:37:00,
2013-01-08 13:42:00,42.2,29.7,30.09,ENE,73,0.0,3.0,61,0.00,,---,0.00,VWS V14.01,2013-01-08 18:42:00,
2013-01-08 13:47:00,41.6,29.6,30.09,ENE,76,1.0,3.0,62,0.00,,---,0.00,VWS V14.01,2013-01-08 18:47:00,
2013-01-08 13:52:00,41.8,29.4,30.09,ENE,76,0.0,3.0,61,0.00,,---,0.00,VWS V14.01,2013-01-08 18:52:00,
2013-01-08 13:57:00,41.9,29.5,30.09,ENE,76,0.0,3.0,61,0.00,,---,0.00,VWS V14.01,2013-01-08 18:57:00,
2013-01-08 14:00:00,41.8,29.4,30.09,ESE,117,3.0,5.0,61,0.00,,---,0.00,VWS V14.01,2013-01-08 19:00:00,
2013-01-08 14:02:00,41.8,29.4,30.09,ESE,117,2.0,3.0,61,0.00,,---,0.00,VWS V14.01,2013-01-08 19:02:00,
2013-01-08 14:07:00,41.8,29.4,30.09,ESE,116,0.0,3.0,61,0.00,,---,0.00,VWS V14.01,2013-01-08 19:07:00,
2013-01-08 14:12:00,42.1,29.2,30.09,ESE,116,1.0,3.0,60,0.00,,---,0.00,VWS V14.01,2013-01-08 19:12:00,
2013-01-08 14:18:00,42.3,29.0,30.08,ESE,116,0.0,3.0,59,0.00,,---,0.00,VWS V14.01,2013-01-08 19:18:00,
2013-01-08 14:23:00,42.8,29.5,30.08,ESE,116,0.0,3.0,59,0.00,,---,0.00,VWS V14.01,2013-01-08 19:23:00,
2013-01-08 14:28:00,43.2,29.4,30.08,ESE,116,0.0,3.0,58,0.00,,---,0.00,VWS V14.01,2013-01-08 19:28:00,
2013-01-08 14:30:00,43.3,29.1,30.08,ESE,116,0.0,3.0,57,0.00,,---,0.00,VWS V14.01,2013-01-08 19:30:00,
2013-01-08 14:33:00,43.5,29.3,30.08,ESE,116,0.0,1.0,57,0.00,,---,0.00,VWS V14.01,2013-01-08 19:33:00,
2013-01-08 14:38:00,43.9,29.7,30.08,ESE,116,0.0,1.0,57,0.00,,---,0.00,VWS V14.01,2013-01-08 19:38:00,
2013-01-08 14:43:00,44.2,29.5,30.08,ESE,117,0.0,2.0,56,0.00,,---,0.00,VWS V14.01,2013-01-08 19:43:00,
2013-01-08 14:48:00,44.3,29.6,30.08,SW,233,1.0,3.0,56,0.00,,---,0.00,VWS V14.01,2013-01-08 19:48:00,
2013-01-08 14:53:00,44.3,29.6,30.08,WSW,251,2.0,3.0,56,0.00,,---,0.00,VWS V14.01,2013-01-08 19:53:00,
2013-01-08 14:58:00,43.9,29.2,30.08,SSE,162,1.0,4.0,56,0.00,,---,0.00,VWS V14.01,2013-01-08 19:58:00,
2013-01-08 15:00:00,43.8,29.6,30.08,SSW,212,0.0,4.0,57,0.00,,---,0.00,VWS V14.01,2013-01-08 20:00:00,
2013-01-08 15:03:00,43.8,29.6,30.08,SSW,198,0.0,2.0,57,0.00,,---,0.00,VWS V14.01,2013-01-08 20:03:00,
2013-01-08 15:08:00,43.6,29.4,30.08,SSW,198,0.0,2.0,57,0.00,,---,0.00,VWS V14.01,2013-01-08 20:08:00,
2013-01-08 15:13:00,43.9,30.1,30.08,SSW,198,0.0,2.0,58,0.00,,---,0.00,VWS V14.01,2013-01-08 20:13:00,
2013-01-08 15:18:00,43.6,29.4,30.08,SSW,198,0.0,2.0,57,0.00,,---,0.00,VWS V14.01,2013-01-08 20:18:00,
2013-01-08 15:23:00,43.8,29.1,30.08,SSW,198,0.0,2.0,56,0.00,,---,0.00,VWS V14.01,2013-01-08 20:23:00,
2013-01-08 15:28:00,43.2,29.4,30.08,SSW,196,0.0,2.0,58,0.00,,---,0.00,VWS V14.01,2013-01-08 20:28:00,
2013-01-08 15:30:00,43.1,29.3,30.09,SSW,198,0.0,2.0,58,0.00,,---,0.00,VWS V14.01,2013-01-08 20:30:00,
2013-01-08 15:33:00,42.9,29.2,30.09,SSW,196,0.0,0.0,58,0.00,,---,0.00,VWS V14.01,2013-01-08 20:33:00,
2013-01-08 15:38:00,42.5,29.2,30.09,SSW,196,0.0,0.0,59,0.00,,---,0.00,VWS V14.01,2013-01-08 20:38:00,
2013-01-08 15:43:00,42.3,29.0,30.09,SSW,196,0.0,0.0,59,0.00,,---,0.00,VWS V14.01,2013-01-08 20:43:00,
2013-01-08 15:48:00,42.1,28.8,30.09,SE,141,0.0,4.0,59,0.00,,---,0.00,VWS V14.01,2013-01-08 20:48:00,
2013-01-08 15:53:00,41.9,28.6,30.09,SE,138,1.0,4.0,59,0.00,,---,0.00,VWS V14.01,2013-01-08 20:53:00,
2013-01-08 15:58:00,41.9,29.0,30.09,SE,134,1.0,4.0,60,0.00,,---,0.00,VWS V14.01,2013-01-08 20:58:00,
2013-01-08 16:00:00,41.9,28.6,30.09,ESE,112,0.0,4.0,59,0.00,,---,0.00,VWS V14.01,2013-01-08 21:00:00,
2013-01-08 16:03:00,42.2,28.9,30.09,ESE,114,0.0,2.0,59,0.00,,---,0.00,VWS V14.01,2013-01-08 21:03:00,
2013-01-08 16:08:00,42.3,28.6,30.09,ESE,113,0.0,3.0,58,0.00,,---,0.00,VWS V14.01,2013-01-08 21:08:00,
2013-01-08 16:13:00,42.3,29.0,30.09,SE,131,0.0,3.0,59,0.00,,---,0.00,VWS V14.01,2013-01-08 21:13:00,
2013-01-08 16:18:00,42.2,28.9,30.09,SE,133,1.0,3.0,59,0.00,,---,0.00,VWS V14.01,2013-01-08 21:18:00,
2013-01-08 16:23:00,41.9,29.0,30.09,SSW,198,2.0,3.0,60,0.00,,---,0.00,VWS V14.01,2013-01-08 21:23:00,
2013-01-08 16:28:00,41.5,29.1,30.09,South,185,1.0,5.0,61,0.00,,---,0.00,VWS V14.01,2013-01-08 21:28:00,
2013-01-08 16:30:00,41.3,28.9,30.09,South,185,0.0,5.0,61,0.00,,---,0.00,VWS V14.01,2013-01-08 21:30:00,
2013-01-08 16:33:00,41.3,28.9,30.09,SSE,157,0.0,4.0,61,0.00,,---,0.00,VWS V14.01,2013-01-08 21:33:00,
2013-01-08 16:38:00,41.1,29.1,30.09,SW,215,1.0,4.0,62,0.00,,---,0.00,VWS V14.01,2013-01-08 21:38:00,
2013-01-08 16:43:00,40.8,29.2,30.09,SSW,195,0.0,4.0,63,0.00,,---,0.00,VWS V14.01,2013-01-08 21:43:00,
2013-01-08 16:48:00,40.3,29.1,30.09,SE,130,0.0,4.0,64,0.00,,---,0.00,VWS V14.01,2013-01-08 21:48:00,
2013-01-08 16:53:00,39.9,29.5,30.09,WSW,247,2.0,5.0,66,0.00,,---,0.00,VWS V14.01,2013-01-08 21:53:00,
2013-01-08 16:58:00,39.6,29.9,30.09,SE,133,1.0,7.0,68,0.00,,---,0.00,VWS V14.01,2013-01-08 21:58:00,
2013-01-08 17:00:00,39.5,29.8,30.09,SE,133,0.0,7.0,68,0.00,,---,0.00,VWS V14.01,2013-01-08 22:00:00,
2013-01-08 17:03:00,39.3,30.0,30.09,ESE,121,1.0,5.0,69,0.00,,---,0.00,VWS V14.01,2013-01-08 22:03:00,
2013-01-08 17:08:00,39.1,30.2,30.09,SSE,158,0.0,6.0,70,0.00,,---,0.00,VWS V14.01,2013-01-08 22:08:00,
2013-01-08 17:13:00,38.5,29.9,30.09,SE,130,0.0,6.0,71,0.00,,---,0.00,VWS V14.01,2013-01-08 22:13:00,
2013-01-08 17:18:00,38.2,30.0,30.09,SE,138,0.0,6.0,72,0.00,,---,0.00,VWS V14.01,2013-01-08 22:18:00,
2013-01-08 17:23:00,37.8,29.9,30.09,SE,138,0.0,6.0,73,0.00,,---,0.00,VWS V14.01,2013-01-08 22:23:00,
2013-01-08 17:28:00,37.5,30.0,30.09,SE,143,3.0,6.0,74,0.00,,---,0.00,VWS V14.01,2013-01-08 22:28:00,
2013-01-08 17:30:00,37.3,29.8,30.09,SE,124,0.0,6.0,74,0.00,,---,0.00,VWS V14.01,2013-01-08 22:30:00,
2013-01-08 17:33:00,37.2,30.0,30.09,SE,131,2.0,3.0,75,0.00,,---,0.00,VWS V14.01,2013-01-08 22:33:00,
2013-01-08 17:38:00,37.2,30.0,30.09,SE,137,3.0,7.0,75,0.00,,---,0.00,VWS V14.01,2013-01-08 22:38:00,
2013-01-08 17:44:00,37.2,30.0,30.09,SE,130,0.0,7.0,75,0.00,,---,0.00,VWS V14.01,2013-01-08 22:44:00,
2013-01-08 17:49:00,37.0,29.8,30.08,SE,143,4.0,7.0,75,0.00,,---,0.00,VWS V14.01,2013-01-08 22:49:00,
2013-01-08 17:54:00,36.9,29.7,30.08,SSE,150,0.0,7.0,75,0.00,,---,0.00,VWS V14.01,2013-01-08 22:54:00,
2013-01-08 17:59:00,36.5,29.7,30.08,ESE,116,2.0,7.0,76,0.00,,---,0.00,VWS V14.01,2013-01-08 22:59:00,
2013-01-08 18:00:00,36.5,30.0,30.08,SE,136,0.0,7.0,77,0.00,,---,0.00,VWS V14.01,2013-01-08 23:00:00,
2013-01-08 18:04:00,36.3,29.8,30.08,SE,124,1.0,5.0,77,0.00,,---,0.00,VWS V14.01,2013-01-08 23:04:00,
2013-01-08 18:09:00,36.3,29.8,30.08,SE,131,0.0,6.0,77,0.00,,---,0.00,VWS V14.01,2013-01-08 23:09:00,
2013-01-08 18:14:00,36.0,29.5,30.08,ESE,114,0.0,6.0,77,0.00,,---,0.00,VWS V14.01,2013-01-08 23:14:00,
2013-01-08 18:19:00,35.8,29.6,30.08,SSE,158,0.0,6.0,78,0.00,,---,0.00,VWS V14.01,2013-01-08 23:19:00,
2013-01-08 18:24:00,35.6,29.4,30.08,SE,124,2.0,6.0,78,0.00,,---,0.00,VWS V14.01,2013-01-08 23:24:00,
2013-01-08 18:29:00,35.3,29.1,30.08,SSE,150,2.0,6.0,78,0.00,,---,0.00,VWS V14.01,2013-01-08 23:29:00,
2013-01-08 18:30:00,35.2,29.4,30.07,ESE,112,0.0,6.0,79,0.00,,---,0.00,VWS V14.01,2013-01-08 23:30:00,
2013-01-08 18:34:00,35.0,29.2,30.07,SE,126,3.0,5.0,79,0.00,,---,0.00,VWS V14.01,2013-01-08 23:34:00,
2013-01-08 18:39:00,34.9,29.4,30.07,SE,138,1.0,5.0,80,0.00,,---,0.00,VWS V14.01,2013-01-08 23:39:00,
2013-01-08 18:44:00,34.6,29.1,30.07,East,97,1.0,8.0,80,0.00,,---,0.00,VWS V14.01,2013-01-08 23:44:00,
2013-01-08 18:49:00,34.6,29.1,30.07,SE,126,3.0,8.0,80,0.00,,---,0.00,VWS V14.01,2013-01-08 23:49:00,
2013-01-08 18:54:00,34.6,29.1,30.07,ESE,117,7.0,8.0,80,0.00,,---,0.00,VWS V14.01,2013-01-08 23:54:00,
2013-01-08 18:59:00,34.4,28.9,30.07,SE,127,1.0,8.0,80,0.00,,---,0.00,VWS V14.01,2013-01-08 23:59:00,
2013-01-08 19:00:00,34.3,28.8,30.07,SSE,147,0.0,8.0,80,0.00,,---,0.00,VWS V14.01,2013-01-09 00:00:00,
2013-01-08 19:04:00,34.1,28.6,30.07,SE,136,1.0,2.0,80,0.00,,---,0.00,VWS V14.01,2013-01-09 00:04:00,
2013-01-08 19:09:00,33.8,28.6,30.07,ESE,117,0.0,3.0,81,0.00,,---,0.00,VWS V14.01,2013-01-09 00:09:00,
2013-01-08 19:14:00,33.7,28.8,30.07,ESE,113,2.0,3.0,82,0.00,,---,0.00,VWS V14.01,2013-01-09 00:14:00,
2013-01-08 19:19:00,33.7,28.8,30.05,NW,304,1.0,3.0,82,0.00,,---,0.00,VWS V14.01,2013-01-09 00:19:00,
2013-01-08 19:24:00,33.7,28.8,30.05,SE,130,6.0,6.0,82,0.00,,---,0.00,VWS V14.01,2013-01-09 00:24:00,
2013-01-08 19:29:00,33.8,28.6,30.05,South,188,1.0,6.0,81,0.00,,---,0.00,VWS V14.01,2013-01-09 00:29:00,
2013-01-08 19:34:00,33.7,28.5,30.05,ESE,123,3.0,7.0,81,0.00,,---,0.00,VWS V14.01,2013-01-09 00:34:00,
2013-01-08 19:39:00,33.5,28.6,30.05,SE,136,1.0,7.0,82,0.00,,---,0.00,VWS V14.01,2013-01-09 00:39:00,
2013-01-08 19:44:00,33.7,28.8,30.05,South,169,1.0,7.0,82,0.00,,---,0.00,VWS V14.01,2013-01-09 00:44:00,
2013-01-08 19:49:00,33.7,28.8,30.04,SE,131,1.0,8.0,82,0.00,,---,0.00,VWS V14.01,2013-01-09 00:49:00,
2013-01-08 19:54:00,34.0,29.1,30.04,SE,128,1.0,8.0,82,0.00,,---,0.00,VWS V14.01,2013-01-09 00:54:00,
2013-01-08 19:59:00,34.1,28.9,30.04,SE,124,2.0,8.0,81,0.00,,---,0.00,VWS V14.01,2013-01-09 00:59:00,
2013-01-08 20:00:00,34.1,28.9,30.03,SSE,165,4.0,8.0,81,0.00,,---,0.00,VWS V14.01,2013-01-09 01:00:00,
2013-01-08 20:04:00,34.1,28.9,30.03,South,172,1.0,7.0,81,0.00,,---,0.00,VWS V14.01,2013-01-09 01:04:00,
2013-01-08 20:09:00,34.3,29.1,30.03,SE,138,2.0,8.0,81,0.00,,---,0.00,VWS V14.01,2013-01-09 01:09:00,
2013-01-08 20:14:00,34.3,28.8,30.03,SSE,147,3.0,8.0,80,0.00,,---,0.00,VWS V14.01,2013-01-09 01:14:00,
2013-01-08 20:19:00,34.1,28.6,30.02,ESE,121,0.0,8.0,80,0.00,,---,0.00,VWS V14.01,2013-01-09 01:19:00,
2013-01-08 20:24:00,34.1,28.6,30.02,ESE,123,5.0,8.0,80,0.00,,---,0.00,VWS V14.01,2013-01-09 01:24:00,
2013-01-08 20:29:00,34.1,28.6,30.02,SSE,151,1.0,8.0,80,0.00,,---,0.00,VWS V14.01,2013-01-09 01:29:00,
2013-01-08 20:30:00,34.1,28.6,30.01,SE,145,4.0,8.0,80,0.00,,---,0.00,VWS V14.01,2013-01-09 01:30:00,
2013-01-08 20:34:00,34.1,28.6,30.01,SW,224,2.0,4.0,80,0.00,,---,0.00,VWS V14.01,2013-01-09 01:34:00,
2013-01-08 20:39:00,34.1,28.6,30.01,West,272,6.0,6.0,80,0.00,,---,0.00,VWS V14.01,2013-01-09 01:39:00,
2013-01-08 20:44:00,34.3,28.8,30.01,SSE,150,1.0,8.0,80,0.00,,---,0.00,VWS V14.01,2013-01-09 01:44:00,
2013-01-08 20:49:00,34.3,28.5,30.01,SSE,168,5.0,10.0,79,0.00,,---,0.00,VWS V14.01,2013-01-09 01:49:00,
2013-01-08 20:54:00,34.3,28.5,30.01,WSW,237,3.0,10.0,79,0.00,,---,0.00,VWS V14.01,2013-01-09 01:54:00,
2013-01-08 20:59:00,34.3,28.5,30.00,SE,143,0.0,10.0,79,0.00,,---,0.00,VWS V14.01,2013-01-09 01:59:00,
2013-01-08 21:00:00,34.3,28.5,30.00,SW,236,3.0,10.0,79,0.00,,---,0.00,VWS V14.01,2013-01-09 02:00:00,
2013-01-08 21:04:00,34.1,28.3,30.00,SE,136,5.0,5.0,79,0.00,,---,0.00,VWS V14.01,2013-01-09 02:04:00,
2013-01-08 21:09:00,34.1,28.3,30.00,SE,141,2.0,8.0,79,0.00,,---,0.00,VWS V14.01,2013-01-09 02:09:00,
2013-01-08 21:14:00,34.1,28.0,29.99,SSW,200,1.0,8.0,78,0.00,,---,0.00,VWS V14.01,2013-01-09 02:14:00,
2013-01-08 21:19:00,34.0,27.9,29.99,SSW,192,2.0,9.0,78,0.00,,---,0.00,VWS V14.01,2013-01-09 02:19:00,
2013-01-08 21:24:00,33.8,27.7,29.99,SSE,150,2.0,9.0,78,0.00,,---,0.00,VWS V14.01,2013-01-09 02:24:00,
2013-01-08 21:29:00,33.8,27.7,30.00,SE,133,3.0,9.0,78,0.00,,---,0.00,VWS V14.01,2013-01-09 02:29:00,
2013-01-08 21:34:00,34.0,27.6,30.00,ESE,112,1.0,8.0,77,0.00,,---,0.00,VWS V14.01,2013-01-09 02:34:00,
2013-01-08 21:39:00,34.0,27.6,30.00,East,97,2.0,8.0,77,0.00,,---,0.00,VWS V14.01,2013-01-09 02:39:00,
2013-01-08 21:44:00,34.0,27.6,29.99,WNW,282,3.0,8.0,77,0.00,,---,0.00,VWS V14.01,2013-01-09 02:44:00,
2013-01-08 21:49:00,33.8,27.4,29.99,ESE,113,4.0,8.0,77,0.00,,---,0.00,VWS V14.01,2013-01-09 02:49:00,
2013-01-08 21:54:00,33.8,27.0,29.99,SE,127,3.0,8.0,76,0.00,,---,0.00,VWS V14.01,2013-01-09 02:54:00,
2013-01-08 21:59:00,33.8,27.0,29.99,SW,226,1.0,8.0,76,0.00,,---,0.00,VWS V14.01,2013-01-09 02:59:00,
2013-01-08 22:00:00,33.7,27.0,29.99,South,185,1.0,8.0,76,0.00,,---,0.00,VWS V14.01,2013-01-09 03:00:00,
2013-01-08 22:04:00,33.5,26.8,29.99,SE,124,7.0,10.0,76,0.00,,---,0.00,VWS V14.01,2013-01-09 03:04:00,
2013-01-08 22:09:00,33.7,27.0,29.99,SSE,168,0.0,10.0,76,0.00,,---,0.00,VWS V14.01,2013-01-09 03:09:00,
2013-01-08 22:14:00,33.7,27.0,29.97,South,171,2.0,10.0,76,0.00,,---,0.00,VWS V14.01,2013-01-09 03:14:00,
2013-01-08 22:19:00,33.8,26.7,29.97,SE,141,2.0,10.0,75,0.00,,---,0.00,VWS V14.01,2013-01-09 03:19:00,
2013-01-08 22:24:00,33.8,26.7,29.97,WSW,251,2.0,10.0,75,0.00,,---,0.00,VWS V14.01,2013-01-09 03:24:00,
2013-01-08 22:29:00,34.1,26.7,29.97,East,97,1.0,10.0,74,0.00,,---,0.00,VWS V14.01,2013-01-09 03:29:00,
2013-01-08 22:30:00,34.1,26.7,29.97,South,186,1.0,10.0,74,0.00,,---,0.00,VWS V14.01,2013-01-09 03:30:00,
2013-01-08 22:34:00,34.0,26.6,29.97,SW,236,1.0,6.0,74,0.00,,---,0.00,VWS V14.01,2013-01-09 03:34:00,
2013-01-08 22:39:00,34.0,26.6,29.97,ESE,119,6.0,10.0,74,0.00,,---,0.00,VWS V14.01,2013-01-09 03:39:00,
2013-01-08 22:45:00,34.3,26.6,29.95,SSE,155,3.0,12.0,73,0.00,,---,0.00,VWS V14.01,2013-01-09 03:45:00,
2013-01-08 22:50:00,34.3,26.6,29.95,South,178,0.0,12.0,73,0.00,,---,0.00,VWS V14.01,2013-01-09 03:50:00,
2013-01-08 22:55:00,34.3,26.2,29.95,SE,134,2.0,12.0,72,0.00,,---,0.00,VWS V14.01,2013-01-09 03:55:00,
2013-01-08 22:59:00,34.3,26.2,29.94,SSE,150,5.0,12.0,72,0.00,,---,0.00,VWS V14.01,2013-01-09 03:59:00,
2013-01-08 23:00:00,34.3,26.2,29.94,ENE,73,0.0,12.0,72,0.00,,---,0.00,VWS V14.01,2013-01-09 04:00:00,
2013-01-08 23:05:00,34.3,25.9,29.94,South,178,4.0,6.0,71,0.00,,---,0.00,VWS V14.01,2013-01-09 04:05:00,
2013-01-08 23:10:00,34.6,26.2,29.94,ESE,106,1.0,8.0,71,0.00,,---,0.00,VWS V14.01,2013-01-09 04:10:00,
2013-01-08 23:15:00,34.6,26.2,29.94,SSE,158,0.0,8.0,71,0.00,,---,0.00,VWS V14.01,2013-01-09 04:15:00,
2013-01-08 23:20:00,34.4,26.0,29.94,SSW,202,1.0,8.0,71,0.00,,---,0.00,VWS V14.01,2013-01-09 04:20:00,
2013-01-08 23:25:00,34.3,25.9,29.94,SW,223,0.0,8.0,71,0.00,,---,0.00,VWS V14.01,2013-01-09 04:25:00,
2013-01-08 23:30:00,34.3,25.5,29.93,ESE,121,4.0,8.0,70,0.00,,---,0.00,VWS V14.01,2013-01-09 04:30:00,
2013-01-08 23:35:00,34.4,25.6,29.93,SSE,155,0.0,6.0,70,0.00,,---,0.00,VWS V14.01,2013-01-09 04:35:00,
2013-01-08 23:40:00,34.4,25.3,29.93,SSW,199,2.0,6.0,69,0.00,,---,0.00,VWS V14.01,2013-01-09 04:40:00,
2013-01-08 23:45:00,34.6,25.5,29.95,SE,131,1.0,6.0,69,0.00,,---,0.00,VWS V14.01,2013-01-09 04:45:00,
2013-01-08 23:50:00,34.4,25.3,29.95,ENE,59,1.0,6.0,69,0.00,,---,0.00,VWS V14.01,2013-01-09 04:50:00,
2013-01-08 23:55:00,34.7,25.6,29.95,SE,127,1.0,8.0,69,0.00,,---,0.00,VWS V14.01,2013-01-09 04:55:00,